loading
|

MIDAS 4 DEB, 42664

Orbit data source: Space-Track

MIDAS 4 DEB, 42664 is space debris originally from a launch on Sat, 21 Oct 1961 UTC launched from the Air Force Western Test Range (AFWTR). Debris objects in space refer to the collection of defunct objects orbiting the Earth. Examples of debris include non-operational satellites, rocket bodies, and fragments generated from explosions, collisions, or faulty payload assembly.

Loading next visibility...
Next conjunction unknown
Loading greatness...
MIDAS 4 DEB details
Identifier
42664, 1961-028K
Orbit
Active
Last TLE update2 weeks ago
Origin
Flag of USUSAF SSD (US)
ManufacturerUnknown
MissionSpacecraft
Bus & MotorUnknown bus, Unknown motor
MassUnknown
Launch date (UTC)
1961-10-21 (63 years ago)
Launch vehicleUnknown
Launch site
Air Force Western Test Range (AFWTR)
Object type
Payload
Rocket body
Debris
Shape & HBRUnknown
Radar Cross SectionMedium (>0.1 m² and <1 m²)

Expand to show TLE details & history

TLE from 2 weeks ago
0 MIDAS 4 DEB
1 42664U 61028K   24275.97225378  .00000009  00000-0  50288-2 0  9996
2 42664  95.8472 105.5561 0342585 119.3283 244.2248  8.69039236296319
Epoch: 2024-10-01T23:20Z
Definitive object data (Epoch: 2024-10-01T23:20:02.726Z)
Latitude
Longitude104.36643°
Altitude3,775.51 km
Speed6.216 km/s
True Right ascension07h 02m 13s
True Declination0° 00' 00"
Sunlit
Object was in daylight at TLE epoch
Predictive object data (real-time)
Latitude-47.84479°
Longitude113.50698°
Altitude3,941.253 km
Speed6.119 km/s
Apparent Right ascension04h 56m 50s
Apparent Declination-74° 03' 25"
Sunlit
Object is in daylight
Predictive observer data (real-time)
Local Sidereal Time09:23:56
Azimuth197.37° SSW
Elevation-32.27°
Doppler factor1
Orbital elements
Apogee3,955.313 km
Perigee3,270.748 km
Semi-major axis9,991.168 km
Eccentricity0.0342585
Inclination95.8472°
RAAN105.5561°
Arg. of periapsis119.3283°
True anomaly240.75643°
Mean anomaly244.2248°
Eccentric anomaly242.48397°
Mean motion2.1733 °/min
BSTAR0.0050288
Period165.65 mins
No data available

MIDAS 4 DEB Visibility forecast

Observer location: 39.9160978°, -105.1181434

Span
Click to sort rows by Start time (UTC) header in descending order
Start Az.
Max El. time (UTC)
Max El. Az.
Max El.
End time (UTC)
End Az.
16 mins2024-10-14 15:23:50.820Z259.454° W2024-10-14 15:31:50.820Z288.058° WNW14.402°2024-10-14 15:39:50.820Z317.894° NNW
14 mins2024-10-14 21:38:50.820Z46.074° ENE2024-10-14 21:44:50.820Z69.233° E13.788°2024-10-14 21:52:50.820Z99.172° ESE
32 mins2024-10-15 00:16:50.820Z11.898° NNE2024-10-15 00:31:50.820Z88.485° E44.135°2024-10-15 00:48:50.820Z184.31° SSW
24 mins2024-10-15 03:01:50.820Z354.513° N2024-10-15 03:12:50.820Z306.708° NW27.313°2024-10-15 03:25:50.820Z253.045° W
6 mins2024-10-15 08:14:50.820Z40.347° NE2024-10-15 08:17:50.820Z29.323° NE11.04°2024-10-15 08:20:50.820Z18.284° NNE
30 mins2024-10-15 10:38:50.820Z130.432° SE2024-10-15 10:53:50.820Z64.186° ENE37.404°2024-10-15 11:08:50.820Z357.639° N
33 mins2024-10-15 13:19:50.820Z197.808° SSW2024-10-15 13:36:50.820Z272.654° WNW37.419°2024-10-15 13:52:50.820Z343.907° N